Voltar ao catálogo

COSMOS 1883

GLONASS

AtivoNavegaçãoMEO
NORAD 18355·PAYLOAD·🇷🇺 Russia

Lançado Sep 16, 1987 de Baikonur Cosmodrome

Loading…

Próximas Passagens (próximas 24 horas)

TLE

AtualizadoSource: Space-Track

Época: Sep 14, 2026, 05:08 UTC

1 18355U 87079A   26257.21428992 -.00000058  00000-0  00000-0 0  9996
2 18355  65.5406 315.7386 0006161 245.3987 201.7151  2.13101009303432

Acompanhe COSMOS 1883 em tempo real com AllMySat

Download on the App Store